CZ-4C DEB

Satellite information

Favourite Embed

Satellite Type and Status

DEBRISIN ORBIT

Key statistics

Satellite CZ-4C DEB at a glance.

Uptime

4048

Days in orbit

Revolutions

≈ 13.4

Per day

Orbit

LEO

Low Earth Orbit

Inclination

63.4

Latest

Satellite identification and parameters

Extended collection of information and parameters for CZ-4C DEB.

Object identification

Identified? True

Debris? True

Object name: CZ-4C DEB

International designator: 2014-047F

Object number (NORAD): 40114

Object ID (CCSDS): 40114

Country: PEOPLES REPUBLIC OF CHINA (PRC)

Current information (Y/N): Y

RCS size: LARGE

Orbital parameters

Period: 107.115 minutes

Inclination: 63.383 deg

SMA: 7471.26 km

Apoapsis: 1366.257 km

Periapsis: 819.994 km

RAAN: 53.6977 deg

Eccentricy: 0.03655764

Argument of periapsis: 13.7499 deg

Mean anomaly: 347.3166 deg

Mean motion: 13.44348759 rev/day

Mean motion (dot): -0.00000004 rev/day2

B* drag term: 0.000099569045 1/REarth

Two-line elements (TLE)

Creation date: Sept. 8, 2025, 3:16 a.m.

Reference frame: TEME

Reference center: EARTH

Epoch: Sept. 7, 2025, 7:02 p.m. UTC

TLE line 0: 0 CZ-4C DEB

TLE line 1: 1 40114U 14047F 25250.79326221 -.00000004 00000-0 99569-4 0 9999

TLE line 2: 2 40114 63.3830 53.6977 0365576 13.7499 347.3166 13.44348759543940

Live tracking on map

Real-time ground track for satellite CZ-4C DEB.

In-orbit conjunctions

A list of the most updated potential collisions computed for object CZ-4C DEB.

Target Orbit TCA Probability of collision Miss distance Type
SL-16 DEB LEO 2024-09-15 12:03:54 0.0002148202 78.0 (m) DEBRIS
COSMOS 970 DEB LEO 2024-08-08 02:18:02 0.0002231415 89.0 (m) DEBRIS

Associated space launch

CZ-4C DEB was lifted into orbit during the mission ‘Long March 4C | Yaogan 20A, Yaogan 20B, Yaogan 20C’, on board a Long March 4C space rocket.

The launch took place on Aug. 9, 2014, 5:45 a.m. from Launch Area 4 (SLS-2 / 603).

For more information about the launch, click the button.

Launch to space Long March 4C | Yaogan 20A, Yaogan 20B, Yaogan 20C
Long March 4C | Yaogan 20A, Yaogan 20B, Yaogan 20C

Agency: N/A

Status: Launch Successful

Launch date: Aug. 9, 2014, 5:45 a.m. UTC

Rocket: Long March 4C

Launch pad: Launch Area 4 (SLS-2 / 603)

Location: Jiuquan Satellite Launch Center, People's Republic of China

...

Latest news about this satellite

There are no fresh news available about this satellite. Check back as we update our databases every day.


Newsletter sign-up

Weekly statistics, charts and insights to help you stay on top of the space industry.